Simultaneous Nadir Overpasses (SNOs) Predictions

Prediction of SNOs between GOES-16 and NPP Satellite Orbit:

Table of predicted SNOs for the next 14.0 days since TLE Epoch: 7/9/2022
Index Date Time (GOES-16) GOES-16 Lat,Lon NPP Lat,Lon Distance(km) Time Diff (sec)
1 07/10/2022 06:32:36 0.02, -75.21 0.31, -76.43 140.23 80
2 07/11/2022 06:11:12 0.01, -75.21 -0.71, -71.91 375.66 80
3 07/12/2022 18:33:11 0.00, -75.21 -0.45, -77.22 229.34 80
4 07/13/2022 18:17:07 0.02, -75.22 0.57, -72.70 286.87 80
5 07/15/2022 06:38:57 -0.02, -75.23 0.60, -77.97 313.32 80
6 07/16/2022 06:17:33 -0.02, -75.23 -0.42, -73.45 203.56 80
7 07/17/2022 18:39:30 0.01, -75.25 -0.79, -78.75 399.53 80
8 07/18/2022 18:23:27 0.00, -75.27 0.23, -74.23 118.43 80
9 07/20/2022 06:45:16 0.00, -75.29 0.94, -79.50 479.62 80
10 07/21/2022 06:23:53 -0.02, -75.31 -0.08, -74.98 37.81 80
